Regional Weather Roundup
Issued by NWS Wakefield, VA

Home | Current Version | Previous Version | Graphics & Text | Print | Product List | Glossary On
Versions: 1 2 3 4 5 6 7 8 9 10 11 12 13 14 15 16 17 18 19 20 21 22 23 24 25 26 27 28 29 30 31 32 33 34 35 36 37 38 39 40 41 42 43 44 45 46 47 48 49 50
000
ASUS41 KAKQ 190110
RWRAKQ

REGIONAL WEATHER ROUNDUP
NATIONAL WEATHER SERVICE WAKEFIELD VA
800 PM EST THU DEC 18 2014

Note: "fair" indicates few or no clouds below 12,000 feet with no
significant weather and/or obstructions to visibility. * = Denotes
station may not report precipitation (e.g., rain,snow,etc.),
thunder or fog.

VAZ042-051-052>054-056-190200-
NORTHERN VIRGINIA

CITY           SKY/WX    TMP DP  RH WIND       PRES   REMARKS
WASH NATIONAL  CLOUDY    39  21  48 NW8       30.14R
DULLES         CLOUDY    33  22  63 W8        30.13S
FORT BELVOIR   MOCLDY    37  22  54 NW10      30.14S
QUANTICO       MOCLDY    37  22  54 N7        30.14F
FREDERICKSBRG* MOCLDY    38  24  57 N7        30.12F
STAFFORD*      MOCLDY    36  21  55 N6        30.17F
WARRENTON      MOCLDY    35  28  76 CALM      30.12S
CULPEPER*      CLOUDY    36  25  64 N5        30.13S
MANASSAS*      MOCLDY    36  25  64 N9        30.13F
LEESBURG*      CLOUDY    34  27  75 NW3       30.13S
WINCHESTER     CLOUDY    34  19  55 NW9       30.12R
FRONT ROYAL*   CLOUDY    32  23  69 CALM      30.11S
LURAY*         CLOUDY    36  27  69 CALM      30.10R
$$

VAZ048-049-060>072-079>083-190200-
CENTRAL AND SOUTH CENTRAL VIRGINIA

CITY           SKY/WX    TMP DP  RH WIND       PRES   REMARKS
RICHMOND       CLOUDY    38  24  57 NE3       30.11S
CHESTERFIELD*  CLOUDY    34  18  51 CALM      30.12R
PETERSBURG*    CLOUDY    33  27  79 CALM      30.12S
HANOVER        CLOUDY    36  24  62 NE3       30.13R
TAPPAHANNOCK*  MOCLDY    37  22  55 CALM      30.13R
QUINTON*       CLOUDY    33  27  78 CALM      30.12R
CHARLOTTSVILLE CLOUDY    36  23  59 NE9       30.10S
GORDONSVILLE*  CLOUDY    35  24  64 NE5       30.10S
ORANGE*        CLOUDY    36  27  69 N3        30.13R
LOUISA*        CLOUDY    37  25  60 CALM      30.10S
BUMPASS*       CLOUDY    37  25  62 NE3       30.11S
FARMVILLE*     CLOUDY    40  28  62 CALM      30.10R
CREWE*         PTCLDY    36  25  63 CALM      30.10S
FORT PICKETT*  MOCLDY    37  25  62 CALM      30.10S
CHASE CITY*    CLOUDY    42  29  59 CALM      30.10S
CLARKSVILLE*   CLOUDY    41  27  56 CALM      30.10S
SOUTH HILL*    CLOUDY    40  27  58 CALM      30.16R
LAWRENCEVILLE* CLOUDY    40  29  65 CALM      30.10S
EMPORIA*       CLOUDY    34  32  93 CALM      30.12S
$$

VAZ088>098-190200-
SOUTHEAST VIRGINIA

CITY           SKY/WX    TMP DP  RH WIND       PRES   REMARKS
NORFOLK        PTCLDY    38  31  76 CALM      30.11R
VIRGINIA BEACH MOCLDY    36  29  75 CALM      30.11R
NORFOLK NAVAL  MOCLDY    43  25  49 N6        30.13R
WEST POINT*    CLOUDY    36  27  69 CALM      30.14R
SALUDA*        FAIR      37  26  63 N8        30.12R
NEWPORT NEWS   PTCLDY    36  25  64 CALM      30.12R
LANGLEY AFB    PTCLDY    35  26  67 NW2       30.13R
FORT EUSTIS    PTCLDY    40  24  52 N5        30.10S
WILLIAMSBURG*  PTCLDY    37  28  70 CALM      30.13R
HR EXEC AP*    PTCLDY    28  25  86 CALM      30.14R
FRANKLIN*      PTCLDY    30  28  93 CALM      30.11F
WAKEFIELD      MOCLDY    32  26  78 CALM      30.11S
$$

VAZ020-022-025-037-045-190200-
WEST CENTRAL AND SOUTHWEST VIRGINIA

CITY           SKY/WX    TMP DP  RH WIND       PRES   REMARKS
STAUNTON*      CLOUDY    36  24  61 N5        30.09F
WAYNESBORO*    CLOUDY    36  23  59 N3        30.07S
HOT SPRINGS VA CLOUDY    29  18  64 W18       29.96F WCI  16
LYNCHBURG      CLOUDY    38  27  64 CALM      30.09S
DANVILLE       CLOUDY    42  28  57 S3        30.11S
SOUTH BOSTON*  CLOUDY    40  29  64 CALM      30.12R
MARTINSVILLE   CLOUDY    40  32  72 CALM      30.12S
ROANOKE        CLOUDY    42  19  39 NW8       30.10F
BLACKSBURG     CLOUDY    36  19  49 W6        30.09F
DUBLIN*        CLOUDY    38  23  54 W5        30.08F
MARION*        MOCLDY    36  24  61 W9        30.09F
HILLSVILLE*    CLOUDY    37  19  48 W9        30.06F
RICHLANDS*     CLOUDY    33  23  65 W3        30.09R
WISE*          CLOUDY    34  25  69 CALM      30.11S
ABINGDON*      CLOUDY    39  28  63 W6        30.12S
$$

MDZ021>025-VAZ099-100-190200-
SOUTHERN MARYLAND AND THE DELMARVA PENINSULA

CITY           SKY/WX    TMP DP  RH WIND       PRES   REMARKS
PATUXENT RIVER CLOUDY    38  23  55 NW15      30.12R
BAY BRIDGE APT   N/A     36  25  64 W9        30.13R
LEONARDTOWN    CLOUDY    36  23  60 CALM      30.14R
DOVER          PTCLDY    35  24  65 W8        30.07R
GEORGETOWN     PTCLDY    37  24  59 W7        30.10R
EASTON         PTCLDY    37  28  70 NW6       30.15R
CAMBRIDGE      CLOUDY    37  25  60 NW9       30.11R
SALISBURY      PTCLDY    38  25  59 NW7       30.10R
OCEAN CITY     PTCLDY    36  24  62 NW7       30.10R
WALLOPS ISLAND PTCLDY    35  25  66 N3        30.11R
ACCOMACK*      PTCLDY    37  27  65 NW6       30.11R
$$

NCZ012>017-030>032-190200-
NORTH CENTRAL AND EASTERN NORTH CAROLINA

CITY           SKY/WX    TMP DP  RH WIND       PRES   REMARKS
ROANOKE RAPIDS CLOUDY    37  32  81 CALM      30.10F
RALEIGH        MOCLDY    43  26  51 CALM      30.11S
ELIZABETH CITY PTCLDY    41  32  70 CALM      30.12R
AHOSKIE*       CLOUDY    35  31  88 CALM      30.12S
EDENTON*         N/A     37  33  84 CALM      30.12R
CURRITUCK*     PTCLDY    37  32  83 CALM      30.12S
KILL DEVIL HLS PTCLDY    40  32  73 CALM      30.09F
MANTEO         MOCLDY    40  34  77 SW3       30.11S
CAPE HATTERAS  PTCLDY    35  32  88 CALM      30.12R
TARBORO*       PTCLDY    36  34  93 CALM      30.11F
GOLDSBORO      PTCLDY    38  37  97 CALM      30.09S
WASHINGTON     CLEAR     38  33  82 CALM      30.12S
GREENVILLE     PTCLDY    39  34  81 CALM      30.12F
NEW BERN       PTCLDY    39  32  76 CALM      30.12F
WILMINGTON     CLEAR     41  36  82 CALM      30.10S
$$

VAZ048-190200-
ELSEWHERE

CITY           SKY/WX    TMP DP  RH WIND       PRES   REMARKS
HARRISBURG PA  CLOUDY    35  24  64 NW9       30.08R
BALTIMORE      CLOUDY    34  23  64 W5        30.10F
ANNAPOLIS      MOCLDY    36  23  59 W7        30.12R
ANDREWS AFB    NOT AVBL
PHILADELPHIA   MOCLDY    36  24  62 W12       30.07R
HENDERSON NC   CLOUDY    42  23  47 CALM      30.11R
GREENSBORO     CLOUDY    45  21  38 CALM      30.10R
ROCKY MOUNT    PTCLDY    37  32  82 CALM      30.11S
$$

VAZ100-190200-
MARINE

STATION/POSITION TIME  TEMP    WIND        PRES    WAVE   SWELL
                       AIR SEA DIR/SP/G            HT/PER HT/PER
                 (UTC) (F)     (DEG/KT/KT) (MB)    (FT/S) (FT/S)
CAPE MAY NJ      0100   37 42  310/ 20/ 23 1017.9R
LEWES DE         0100   37 42  300/ 11/ 12 1018.4R
15NM E FENWICK I 0100   39 47              1018.1R   3/ 4
OCEAN-CITY-INLET 0100   36 46  320/  7/ 10 1018.7R
WACHAPREAGUE VA  0100   34 44   CALM  /  1 1019.4F
THOMAS POINT MD  0100   37 42  320/ 11/ 14 1020.7F
GOOSES REEF MD   0100   38     VRB 14/ 17  1019.1R
COVE POINT MD    0100   37     330/ 13/ 16 1019.8R
SOLOMONS ISLAND  0100      44                N/A
BISHOPS HEAD MD  0100   37 41  330/  7/ 10 1019.3S
PINEY POINT MD   0100          340/ 11/ 12   N/A
POTOMAC MD       0100   38     360/  8/ 10 1019.1R
CAMBRIDGE MD     0100   38 41  300/ 11/ 16 1019.5R
LEWISETTA VA     0100   39 43  350/  8/ 14 1019.8R
RAPPAHANNOCK LGT 0100          340/ 14/ 16 1019.9S
STINGRAY PT      0100   40     360/ 12/ 14 1020.0R
YORK RVR RNG VA  0100   40      20/  9/ 10 1019.4R
YORKTOWN VA      0100   40 46   20/  6/  9 1019.7R
JAMESTOWN VA     0100   39      10/  2/  4   N/A
DOMINION TERM VA 0100   42     360/  3/  3 1019.9R
KIPTOPEKE VA     0100      50   70/  4/  4   N/A
CHES BAY BRIDGE  0100   42 46   30/  5/  6 1019.4R
CAPE HENRY VA    0100   41      20/  7/  8 1018.5R
CHESAPEAKE LGHT  0000   42     360/  8/  9 1020.1R
WILLOUBY STN VA  0100   42     340/  7/  8 1020.2R
S CRANEY ISL VA  0100           20/  3/  5 1019.8R
CAPE HENRY BUOY  0100      49                N/A     2/ 5
1ST LANDING BUOY 0100   42      50/  6/ 10 1019.0F
CAPE CHARLES BUO 0100      48                N/A     2/11   2/11
64NM E OF VA BCH 0100   44 55  330/ 14/ 17 1018.6R   4/ 5   2/11
DUCK PIER NC     0100   43 48   10/  2/  3 1018.4F
44100 DUCK FRF   0100      51                N/A     3/ 6
44056 DUCK FRF   0100      48                N/A     3/ 6
OREGON INLET NC  0100   43 51  120/  2/  2 1019.3F
HATTERAS NC      0100   45 54   70/  2/  2 1020.0F
DIAMOND SHLS NC  0100   47                 1020.2R   3/ 7
CAPE LOOKOUT NC  0000   48      20/  5/  6 1019.4R
$$


USA.gov is the U.S. government's official web portal to all federal, state and local government web resources and services.